Find OPS 8068

NORAD ID: 1580 Int'l Des: 1965-072 Owner: AFSSD Country: US operational
LEORETROGRADESSO

リアルタイム位置

3D地球を読み込み中...

OPS 8068について

説明を読み込み中...

次回通過

Passes for default location (London). Set your location on the main map for personalized predictions.

高度履歴

Loading altitude history...

軌道要素

1 01580U 65072A 26105.88309405 .00000195 00000-0 72283-4 0 9996
2 01580 98.4119 264.3909 0228143 229.5085 128.6019 14.29613756124112
Epoch: Apr 15, 2026 • Age: 7 hours

現在のステータス

高度 893.1 km
速度 7.36 km/s
衛星直下点 -4.21°S, 2.57°E
タイプ other

Most Searched